Flag for Germany Weather past 2 weeks in Mainz, Rhineland-Palatinate, Germany

Now
69 °F

Partly sunny.


Feels Like: 69 °F
Forecast: 54 / 70 °F
Wind: 18 mph from West

Location: Wiesbaden Airport

Current Time: Jul 28, 2015 at 3:31:52 PM

Latest Report: Jul 28, 2015 at 2:58 PM


Visibility: N/A

Pressure: 29.77 "Hg

Humidity: 39%

Dew point: 43 °F

Location of MainzLocation

Historic Weather in Mainz — Graph

°F

Mainz temperature yesterday

Maximum temperature yesterday: 72 °F (at 5:58 PM)
Minimum temperature yesterday: 58 °F (at 1:58 AM)
Average temperature yesterday: 65 °F

Past Weeks' High & Low Weather Summary

 TemperatureHumidityPressure
High95 °F (Jul 17, 4:58 PM)100% (Jul 18, 2:58 AM)30.14 "Hg (Jul 18, 2:58 AM)
Low49 °F (Jul 26, 5:58 AM)26% (Jul 17, 2:58 PM)29.62 "Hg (Jul 24, 10:58 PM)
Average73 °F64%29.92 "Hg
* Reported Jul 13 1:58 PM — Jul 28 1:58 PM, Mainz, Weather by CustomWeather, © 2015

Note: Actual official high and low records may vary slightly from our data, if they occured in-between our weather recording intervals... More about our weather records

Advertising

Mainz weather history for previous 24 hours

 ConditionsComfort  
Time TempWeatherWind HumidityBarometerVisibility
1:58 PM
Tue, Jul 28
69 °FPartly sunny.17 mph38%29.78 "HgN/A
12:58 PM68 °FPartly sunny.21 mph40%29.78 "HgN/A
12:02 PM70 °FPartly sunny.15 mph40%29.78 "HgN/A
10:58 AM68 °FSunny.18 mph43%29.78 "HgN/A
9:58 AM64 °FSunny.17 mph49%29.78 "HgN/A
8:58 AM61 °FScattered clouds.16 mph63%29.79 "HgN/A
7:58 AM61 °FPassing clouds.14 mph68%29.76 "HgN/A
6:58 AM58 °FPassing clouds.10 mph73%29.77 "HgN/A
5:58 AM59 °FMostly cloudy.7 mph84%29.75 "HgN/A
4:58 AM59 °FOvercast.7 mph88%29.74 "HgN/A
3:58 AM59 °FMostly cloudy.8 mph94%29.73 "HgN/A
2:58 AM64 °FMostly cloudy.13 mph64%29.72 "HgN/A
1:58 AM64 °FMostly cloudy.8 mph65%29.72 "HgN/A
12:58 AM64 °FOvercast.8 mph68%29.71 "HgN/A
11:58 PM
Mon, Jul 27
63 °FPassing clouds.9 mph68%29.71 "HgN/A
10:58 PM65 °FPassing clouds.10 mph65%29.72 "HgN/A
9:58 PM68 °FPartly sunny.13 mph60%29.70 "HgN/A
8:58 PM68 °FScattered clouds.17 mph59%29.70 "HgN/A
7:58 PM70 °FOvercast.21 mph56%29.70 "HgN/A
6:58 PM69 °FPartly sunny.24 mph59%29.69 "HgN/A
5:58 PM72 °FPassing clouds.21 mph57%29.68 "HgN/A
5:04 PM70 °FLight rain. Cloudy.21 mph57%29.70 "HgN/A
4:58 PM70 °FCloudy.18 mph55%29.69 "HgN/A
3:58 PM67 °FMore clouds than sun.20 mph66%29.70 "HgN/A
3:00 PM70 °FScattered clouds.22 mph60%29.68 "HgN/A
Weather by CustomWeather, © 2015

See weather overviewHow to use our weather pages